ONEWEB-0254 (48972 NORAD) Tracking and Keplerian Element Data

This shows tracking and keplerian element data for the satellite.

Feedback or suggestion? Click here.




ElementValue
Catalog48972
NameONEWEB-0254
Epoch Orbit362
Epoch Day210.91668981
Epoch Year2021
RAAN227.546
Inclination87.4369
Eccentricity0.0011409
Argument of Perigee162.1994
Mean Anonmoly23.948
Mean Motion14.95426876
Decay Rate-0.01367833
L11 48972U 21060F 21210.91668981 -.01367833 00000-0 -13482+0 0 9993
L22 48972 87.4369 227.5460 0011409 162.1994 23.9480 14.95426876 3621

Live tracking and technical data element details for ONEWEB-0254 (NORAD 48972). ONEWEB-0254 can be tracked NOW for your location showing map with azimuth and elevation plus other details from your city location.

Track the satellite on the map from your city or location and see movement details for azimuth, elevation, latitude, longitude, range, height, and movement on the map or in text.







IsCatalogInMostPopularTable: catalog: 48972, numindb: 4
Update: records affected: 1



GetName: 48972 ONEWEB-0254

Hit Count: updated at: Sat, 31 Jul 2021 14:53:47 GMT